EW2356 Weather Reports


time (UTC)temp
C
wind
direction
speed
KPH
gust
KPH
rain 1hr
cm
rain 24hr
cm
rain mn
cm
humidity
%
barometer
mb
20260906154546 27 58 8.0 14.5 0.00 0.00 0.00 72 1014.8
20260906153038 27 339 1.6 12.9 0.00 0.00 0.00 75 1014.7
20260906151513 27 172 6.4 17.7 0.00 0.00 0.00 75 1014.5
20260906150018 26 24 4.8 12.9 0.00 0.00 0.00 75 1014.2
20260906144551 26 330 3.2 9.7 0.00 0.00 0.00 77 1014.2
20260906143107 26 347 1.6 8.0 0.00 0.00 0.00 80 1014.1
20260906141529 26 22 3.2 11.3 0.00 0.00 0.00 82 1013.8
20260906140040 26 58 1.6 8.0 0.00 0.00 0.00 83 1013.8
20260906134506 25 63 0.0 6.4 0.00 0.00 0.00 86 1014.0
20260906133006 24 360 0.0 9.7 0.00 0.00 0.00 87 1014.0
20260906131556 23 22 1.6 8.0 0.00 0.00 0.00 88 1014.1
20260906130049 23 35 1.6 8.0 0.00 0.00 0.00 90 1014.1
20260906124528 23 30 1.6 4.8 0.00 0.00 0.00 90 1014.0
20260906123033 23 66 3.2 6.4 0.00 0.00 0.00 91 1013.8
20260906121509 23 348 0.0 8.0 0.00 0.00 0.00 91 1013.7
20260906120006 23 345 0.0 3.2 0.00 0.00 0.00 91 1013.3
20260906114553 23 76 0.0 3.2 0.00 0.00 0.00 91 1013.1
20260906113052 23 72 1.6 9.7 0.00 0.00 0.00 90 1013.1
20260906111550 23 77 1.6 6.4 0.00 0.00 0.00 91 1013.0
20260906110052 24 19 0.0 3.2 0.00 0.00 0.00 91 1013.0
20260906104549 24 49 1.6 3.2 0.00 0.00 0.00 91 1013.0
20260906103050 24 73 0.0 6.4 0.00 0.00 0.00 91 1012.8
20260906101546 24 29 0.0 3.2 0.00 0.00 0.00 90 1012.6
20260906100044 25 24 0.0 6.4 0.00 0.00 0.00 90 1012.5
20260906094533 25 38 0.0 9.7 0.00 0.00 0.00 90 1012.5
20260906093027 25 22 0.0 3.2 0.00 0.00 0.00 90 1012.5
20260906091522 25 70 0.0 3.2 0.00 0.00 0.00 90 1012.3
20260906090007 25 27 0.0 1.6 0.00 0.00 0.00 90 1012.1
20260906084549 25 37 0.0 3.2 0.00 0.00 0.00 90 1012.0
20260906083050 24 354 0.0 1.6 0.00 0.00 0.00 91 1011.8
20260906081536 23 339 0.0 0.0 0.00 0.00 0.00 92 1011.8
20260906080030 23 339 0.0 0.0 0.00 0.00 0.00 93 1011.7
20260906074511 23 339 0.0 0.0 0.00 0.00 0.00 92 1011.7
20260906073009 23 339 0.0 0.0 0.00 0.00 0.00 92 1011.6
20260906071608 24 338 0.0 0.0 0.00 0.00 0.00 91 1011.8
20260906070058 24 339 0.0 0.0 0.00 0.00 0.00 91 1011.9
20260906064556 24 339 0.0 0.0 0.00 0.00 0.00 91 1011.9
20260906063050 24 339 0.0 0.0 0.00 0.00 0.00 90 1012.0
20260906061549 25 339 0.0 0.0 0.00 0.00 0.00 90 1012.2
20260906060050 25 339 0.0 0.0 0.00 0.00 0.00 90 1012.1
20260906054549 25 339 0.0 0.0 0.00 0.00 0.00 88 1012.1
20260906053044 25 339 0.0 0.0 0.00 0.00 0.00 88 1012.2
20260906051531 25 339 0.0 0.0 0.00 0.00 0.00 88 1012.0
20260906050047 25 339 0.0 0.0 0.00 0.00 0.00 87 1012.0
20260906044505 25 338 0.0 0.0 0.00 0.00 0.00 86 1012.0
20260906043006 25 339 0.0 0.0 0.00 0.00 0.00 85 1011.9
20260906041546 26 338 0.0 0.0 0.00 0.00 0.00 84 1011.8
20260906040047 26 339 0.0 0.0 0.00 0.00 0.00 83 1011.6
20260906034541 27 339 0.0 0.0 0.00 0.00 0.00 80 1011.5
20260906033035 27 339 0.0 0.0 0.00 0.00 0.00 78 1011.5
20260906031540 27 339 0.0 0.0 0.00 0.00 0.00 77 1011.3
20260906030034 27 339 0.0 0.0 0.00 0.00 0.00 77 1011.1
20260906024536 28 339 0.0 0.0 0.00 0.00 0.00 75 1011.1
20260906023036 28 339 0.0 0.0 0.00 0.00 0.00 75 1011.0
20260906021532 28 339 0.0 0.0 0.00 0.00 0.00 74 1010.6
20260906020032 28 339 0.0 0.0 0.00 0.00 0.00 76 1010.4
20260906014534 29 339 0.0 0.0 0.00 0.00 0.00 73 1010.2
20260906013013 30 339 0.0 0.0 0.00 0.00 0.00 65 1010.0
20260906011513 31 339 0.0 0.0 0.00 0.00 0.00 63 1009.8
20260906010054 31 339 0.0 0.0 0.00 0.00 0.00 60 1009.8
20260906004556 32 339 0.0 0.0 0.00 0.00 0.00 58 1009.7
20260906003036 32 339 0.0 1.6 0.00 0.00 0.00 55 1009.7
20260906001535 33 336 0.0 1.6 0.00 0.00 0.00 53 1009.8
20260906000018 33 10 0.0 11.3 0.00 0.00 0.00 51 1009.8
20260905234517 34 45 1.6 8.0 0.00 0.00 0.00 49 1009.8
20260905233059 35 70 0.0 8.0 0.00 0.00 0.00 48 1009.7
20260905231558 35 32 3.2 11.3 0.00 0.00 0.00 46 1009.8
20260905230040 36 56 3.2 12.9 0.00 0.00 0.00 44 1009.7
20260905224542 37 35 1.6 6.4 0.00 0.00 0.00 39 1009.6
20260905223021 37 267 0.0 9.7 0.00 0.00 0.00 38 1009.4
20260905221520 39 309 0.0 1.6 0.00 0.00 0.00 34 1009.6
20260905220100 38 320 0.0 9.7 0.00 0.00 0.00 35 1009.6
20260905214607 38 337 1.6 9.7 0.00 0.00 0.00 36 1009.8
20260905213044 38 332 0.0 6.4 0.00 0.00 0.00 37 1009.7
20260905211538 37 330 1.6 11.3 0.00 0.00 0.00 36 1009.7
20260905210028 37 349 3.2 11.3 0.00 0.00 0.00 39 1010.0
20260905204521 37 29 8.0 16.1 0.00 0.00 0.00 37 1010.1
20260905203020 37 51 4.8 12.9 0.00 0.00 0.00 39 1010.1
20260905201524 37 60 3.2 11.3 0.00 0.00 0.00 39 1010.3
20260905200028 38 324 4.8 8.0 0.00 0.00 0.00 38 1010.5
20260905194516 38 348 0.0 11.3 0.00 0.00 0.00 38 1010.5
20260905193025 38 329 1.6 8.0 0.00 0.00 0.00 39 1010.8
20260905191511 37 359 3.2 8.0 0.00 0.00 0.00 39 1010.9
20260905190051 37 295 3.2 12.9 0.00 0.00 0.00 40 1011.1
20260905184603 37 346 1.6 12.9 0.00 0.00 0.00 39 1011.3
20260905183031 37 29 0.0 8.0 0.00 0.00 0.00 42 1011.5
20260905181527 37 41 0.0 8.0 0.00 0.00 0.00 42 1011.7
20260905180007 37 339 1.6 8.0 0.00 0.00 0.00 44 1011.7
20260905174513 37 295 0.0 8.0 0.00 0.00 0.00 44 1011.9
20260905173048 36 239 3.2 11.3 0.00 0.00 0.00 46 1012.1
20260905171544 36 324 0.0 6.4 0.00 0.00 0.00 47 1012.2
20260905170022 35 273 3.2 11.3 0.00 0.00 0.00 51 1012.4
20260905164521 35 257 0.0 6.4 0.00 0.00 0.00 51 1012.5
20260905163001 35 322 0.0 9.7 0.00 0.00 0.00 52 1012.7
20260905161559 34 258 1.6 9.7 0.00 0.00 0.00 55 1012.7
20260905160050 33 243 3.2 11.3 0.00 0.00 0.00 58 1012.8